Time,TemperatureF,DewpointF,PressureIn,WindDirection,WindDirectionDegrees,WindSpeedMPH,WindSpeedGustMPH,Humidity,HourlyPrecipIn,Conditions,Clouds,dailyrainin,SoftwareType,DateUTC
2013-07-03 00:01:00,65.0,63.0,30.02,SW,221,0.0,0.0,92,0.00,,,0.20,,2013-07-03 05:01:00,
2013-07-03 00:11:00,64.0,62.0,30.02,SSE,165,0.0,0.0,93,0.00,,,0.20,,2013-07-03 05:11:00,
2013-07-03 00:23:00,64.0,62.0,30.02,South,186,0.0,0.0,94,0.00,,,0.20,,2013-07-03 05:23:00,
2013-07-03 00:56:00,64.0,63.0,30.01,South,186,0.0,0.0,95,0.00,,,0.20,,2013-07-03 05:56:00,
2013-07-03 01:06:00,64.0,63.0,30.01,South,186,0.0,0.0,95,0.00,,,0.20,,2013-07-03 06:06:00,
2013-07-03 01:14:00,64.0,63.0,30.01,South,175,0.0,0.0,95,0.00,,,0.20,,2013-07-03 06:14:00,
2013-07-03 01:24:00,64.0,63.0,30.01,South,174,0.0,0.0,95,0.00,,,0.20,,2013-07-03 06:24:00,
2013-07-03 01:39:00,64.0,63.0,30.01,South,174,0.0,0.0,95,0.00,,,0.20,,2013-07-03 06:39:00,
2013-07-03 01:48:00,64.0,63.0,30.01,South,186,0.0,0.0,95,0.00,,,0.20,,2013-07-03 06:48:00,
2013-07-03 02:04:00,64.0,63.0,30.01,SSW,199,0.0,0.0,96,0.00,,,0.20,,2013-07-03 07:04:00,
2013-07-03 02:15:00,64.0,63.0,30.01,SSW,209,0.0,0.0,96,0.00,,,0.20,,2013-07-03 07:15:00,
2013-07-03 02:26:00,64.0,63.0,30.01,SSW,207,0.0,0.0,95,0.00,,,0.20,,2013-07-03 07:26:00,
2013-07-03 02:47:00,64.0,63.0,30.01,SSW,194,0.0,7.0,95,0.00,,,0.20,,2013-07-03 07:47:00,
2013-07-03 02:56:00,64.0,63.0,30.01,SSW,195,0.0,1.0,95,0.00,,,0.20,,2013-07-03 07:56:00,
2013-07-03 03:08:00,64.0,63.0,30.01,SSW,195,0.0,1.0,95,0.00,,,0.20,,2013-07-03 08:08:00,
2013-07-03 03:16:00,64.0,63.0,30.01,SSW,200,0.0,0.0,95,0.00,,,0.20,,2013-07-03 08:16:00,
2013-07-03 03:25:00,64.0,63.0,30.01,SSW,196,0.0,0.0,95,0.00,,,0.20,,2013-07-03 08:25:00,
2013-07-03 03:45:00,64.0,62.0,30.02,SSW,208,0.0,0.0,94,0.00,,,0.20,,2013-07-03 08:45:00,
2013-07-03 03:55:00,65.0,64.0,30.02,SSW,194,0.0,0.0,95,0.00,,,0.20,,2013-07-03 08:55:00,
2013-07-03 04:05:00,65.0,64.0,30.02,SSW,194,0.0,0.0,95,0.00,,,0.20,,2013-07-03 09:05:00,
2013-07-03 04:16:00,65.0,64.0,30.02,SSW,198,0.0,0.0,95,0.00,,,0.20,,2013-07-03 09:16:00,
2013-07-03 04:24:00,65.0,64.0,30.03,SSW,213,0.0,0.0,95,0.00,,,0.20,,2013-07-03 09:24:00,
2013-07-03 04:37:00,65.0,64.0,30.03,SSW,213,0.0,0.0,95,0.00,,,0.20,,2013-07-03 09:37:00,
2013-07-03 04:46:00,65.0,64.0,30.03,South,185,0.0,2.0,95,0.00,,,0.20,,2013-07-03 09:46:00,
2013-07-03 05:05:00,65.0,64.0,30.03,SSW,194,0.0,0.0,95,0.00,,,0.20,,2013-07-03 10:05:00,
2013-07-03 05:15:00,65.0,64.0,30.03,SSW,194,0.0,0.0,95,0.00,,,0.20,,2013-07-03 10:15:00,
2013-07-03 05:27:00,65.0,64.0,30.04,SSW,195,0.0,0.0,95,0.00,,,0.20,,2013-07-03 10:27:00,
2013-07-03 05:36:00,65.0,64.0,30.04,SSW,195,0.0,0.0,95,0.00,,,0.20,,2013-07-03 10:36:00,
2013-07-03 05:55:00,65.0,64.0,30.05,SSW,198,0.0,0.0,95,0.00,,,0.20,,2013-07-03 10:55:00,
2013-07-03 06:06:00,65.0,64.0,30.05,SSW,198,0.0,0.0,95,0.00,,,0.20,,2013-07-03 11:06:00,
2013-07-03 06:16:00,65.0,64.0,30.05,SSW,200,0.0,0.0,95,0.00,,,0.20,,2013-07-03 11:16:00,
2013-07-03 06:25:00,65.0,64.0,30.06,South,183,0.0,0.0,95,0.00,,,0.20,,2013-07-03 11:25:00,
2013-07-03 06:38:00,65.0,64.0,30.06,South,183,0.0,0.0,95,0.00,,,0.20,,2013-07-03 11:38:00,
2013-07-03 06:53:00,65.0,64.0,30.07,South,173,0.0,0.0,95,0.00,,,0.20,,2013-07-03 11:53:00,
2013-07-03 07:08:00,65.0,64.0,30.07,South,173,0.0,0.0,95,0.00,,,0.20,,2013-07-03 12:08:00,
2013-07-03 07:16:00,65.0,64.0,30.07,SSW,196,0.0,0.0,95,0.00,,,0.20,,2013-07-03 12:16:00,
2013-07-03 07:24:00,65.0,64.0,30.07,South,178,0.0,0.0,95,0.00,,,0.20,,2013-07-03 12:24:00,
2013-07-03 07:37:00,65.0,64.0,30.07,South,178,0.0,0.0,95,0.00,,,0.20,,2013-07-03 12:37:00,
2013-07-03 07:43:00,65.0,64.0,30.08,SSW,199,0.0,0.0,95,0.00,,,0.20,,2013-07-03 12:43:00,
2013-07-03 07:56:00,65.0,63.0,30.09,South,188,0.0,4.0,94,0.00,,,0.20,,2013-07-03 12:56:00,
2013-07-03 08:06:00,65.0,63.0,30.09,South,188,0.0,4.0,94,0.00,,,0.20,,2013-07-03 13:06:00,
2013-07-03 08:16:00,65.0,63.0,30.09,South,170,0.0,0.0,94,0.00,,,0.20,,2013-07-03 13:16:00,
2013-07-03 08:35:00,65.0,63.0,30.10,South,185,0.0,0.0,94,0.00,,,0.07,,2013-07-03 13:35:00,
2013-07-03 09:06:00,66.0,64.0,30.11,SSW,200,0.0,7.0,93,0.00,,,0.07,,2013-07-03 14:06:00,
2013-07-03 09:15:00,66.0,64.0,30.11,SSW,207,0.0,0.0,93,0.00,,,0.07,,2013-07-03 14:15:00,
2013-07-03 09:37:00,66.0,64.0,30.10,SSE,168,0.0,8.0,93,0.00,,,0.04,,2013-07-03 14:37:00,
2013-07-03 09:45:00,67.0,64.0,30.10,SSW,205,0.0,7.0,90,0.00,,,0.04,,2013-07-03 14:45:00,
2013-07-03 10:05:00,67.0,64.0,30.10,SSW,207,0.0,9.0,90,0.00,,,0.04,,2013-07-03 15:05:00,
2013-07-03 10:14:00,68.0,65.0,30.10,South,190,0.0,4.0,90,0.00,,,0.04,,2013-07-03 15:14:00,
2013-07-03 10:26:00,68.0,65.0,30.10,South,190,0.0,4.0,90,0.00,,,0.04,,2013-07-03 15:26:00,
2013-07-03 10:37:00,68.0,64.0,30.11,SSW,196,0.0,0.0,88,0.00,,,0.03,,2013-07-03 15:37:00,
2013-07-03 10:46:00,68.0,65.0,30.11,WNW,283,0.0,5.0,89,0.00,,,0.03,,2013-07-03 15:46:00,
2013-07-03 10:55:00,68.0,65.0,30.11,WNW,283,0.0,5.0,89,0.00,,,0.03,,2013-07-03 15:55:00,
2013-07-03 11:06:00,68.0,65.0,30.10,WNW,283,0.0,3.0,89,0.00,,,0.03,,2013-07-03 16:06:00,
2013-07-03 11:23:00,69.0,65.0,30.10,SSW,198,0.0,5.0,88,0.00,,,0.03,,2013-07-03 16:23:00,
2013-07-03 11:38:00,70.0,65.0,30.10,South,180,0.0,5.0,83,0.00,,,0.03,,2013-07-03 16:38:00,
2013-07-03 11:46:00,70.0,64.0,30.11,West,267,0.0,0.0,82,0.00,,,0.03,,2013-07-03 16:46:00,
2013-07-03 11:55:00,70.0,64.0,30.11,West,267,0.0,0.0,82,0.00,,,0.03,,2013-07-03 16:55:00,
2013-07-03 12:07:00,70.0,65.0,30.12,South,184,0.0,1.0,83,0.00,,,0.03,,2013-07-03 17:07:00,
2013-07-03 12:40:00,70.0,65.0,30.11,North,355,0.0,6.0,84,0.00,,,0.03,,2013-07-03 17:40:00,
2013-07-03 12:53:00,70.0,65.0,30.11,WNW,297,0.0,5.0,83,0.00,,,0.03,,2013-07-03 17:53:00,
2013-07-03 13:07:00,72.0,65.0,30.11,West,274,0.0,1.0,80,0.00,,,0.03,,2013-07-03 18:07:00,
2013-07-03 13:15:00,72.0,64.0,30.11,SSE,168,1.0,5.0,75,0.00,,,0.03,,2013-07-03 18:15:00,
2013-07-03 13:25:00,72.0,64.0,30.11,SSE,168,1.0,5.0,75,0.00,,,0.03,,2013-07-03 18:25:00,
2013-07-03 13:36:00,74.0,65.0,30.10,South,178,0.0,6.0,74,0.00,,,0.03,,2013-07-03 18:36:00,
2013-07-03 13:56:00,74.0,66.0,30.10,SSW,196,0.0,0.0,75,0.00,,,0.03,,2013-07-03 18:56:00,
2013-07-03 14:04:00,75.0,65.0,30.10,West,275,1.0,5.0,72,0.00,,,0.03,,2013-07-03 19:04:00,
2013-07-03 14:15:00,75.0,65.0,30.09,South,176,0.0,3.0,70,0.00,,,0.03,,2013-07-03 19:15:00,
2013-07-03 14:29:00,75.0,65.0,30.09,South,176,0.0,3.0,70,0.00,,,0.03,,2013-07-03 19:29:00,
2013-07-03 14:37:00,75.0,65.0,30.09,South,180,0.0,6.0,71,0.00,,,0.02,,2013-07-03 19:37:00,
2013-07-03 14:46:00,75.0,65.0,30.09,SSW,202,0.0,2.0,70,0.00,,,0.02,,2013-07-03 19:46:00,
2013-07-03 14:55:00,75.0,65.0,30.09,SSW,202,0.0,2.0,70,0.00,,,0.02,,2013-07-03 19:55:00,
2013-07-03 15:13:00,75.0,65.0,30.09,South,173,0.0,4.0,71,0.00,,,0.02,,2013-07-03 20:13:00,
2013-07-03 15:37:00,76.0,64.0,30.08,SSW,193,0.0,0.0,66,0.00,,,0.02,,2013-07-03 20:37:00,
2013-07-03 15:44:00,76.0,64.0,30.09,SSW,192,0.0,0.0,66,0.00,,,0.02,,2013-07-03 20:44:00,
2013-07-03 15:54:00,76.0,64.0,30.09,SSW,192,0.0,0.0,66,0.00,,,0.02,,2013-07-03 20:54:00,
2013-07-03 16:06:00,77.0,65.0,30.08,South,188,0.0,3.0,67,0.00,,,0.02,,2013-07-03 21:06:00,
2013-07-03 16:13:00,77.0,64.0,30.08,NW,306,0.0,4.0,65,0.00,,,0.02,,2013-07-03 21:13:00,
2013-07-03 16:26:00,77.0,64.0,30.08,NW,306,0.0,4.0,65,0.00,,,0.02,,2013-07-03 21:26:00,
2013-07-03 16:35:00,77.0,64.0,30.07,West,274,0.0,2.0,64,0.00,,,0.02,,2013-07-03 21:35:00,
2013-07-03 16:44:00,78.0,64.0,30.07,West,265,0.0,3.0,63,0.00,,,0.02,,2013-07-03 21:44:00,
2013-07-03 16:53:00,78.0,64.0,30.07,West,265,0.0,3.0,63,0.00,,,0.02,,2013-07-03 21:53:00,
2013-07-03 17:05:00,78.0,65.0,30.07,West,266,0.0,0.0,64,0.00,,,0.02,,2013-07-03 22:05:00,
2013-07-03 17:14:00,78.0,64.0,30.07,SW,236,0.0,3.0,62,0.00,,,0.02,,2013-07-03 22:14:00,
2013-07-03 17:26:00,78.0,64.0,30.07,SW,236,0.0,3.0,62,0.00,,,0.02,,2013-07-03 22:26:00,
2013-07-03 17:37:00,79.0,65.0,30.06,North,360,0.0,0.0,63,0.00,,,0.00,,2013-07-03 22:37:00,
2013-07-03 17:45:00,78.0,65.0,30.06,WSW,238,0.0,0.0,65,0.00,,,0.00,,2013-07-03 22:45:00,
2013-07-03 17:54:00,78.0,65.0,30.06,WSW,238,0.0,0.0,65,0.00,,,0.00,,2013-07-03 22:54:00,
2013-07-03 18:24:00,76.0,64.0,30.06,North,349,0.0,0.0,67,0.00,,,0.00,,2013-07-03 23:24:00,
2013-07-03 19:03:00,77.0,63.0,30.06,North,11,0.0,0.0,63,0.00,,,0.00,,2013-07-04 00:03:00,
2013-07-03 19:15:00,76.0,63.0,30.06,NNE,17,0.0,0.0,64,0.00,,,0.00,,2013-07-04 00:15:00,
2013-07-03 19:24:00,76.0,63.0,30.06,NNE,17,0.0,0.0,64,0.00,,,0.00,,2013-07-04 00:24:00,
2013-07-03 19:47:00,77.0,66.0,30.06,NNE,17,0.0,0.0,70,0.00,,,0.00,,2013-07-04 00:47:00,
2013-07-03 19:55:00,77.0,66.0,30.06,NNE,17,0.0,0.0,70,0.00,,,0.00,,2013-07-04 00:55:00,
2013-07-03 20:03:00,76.0,66.0,30.06,NNE,17,0.0,0.0,72,0.00,,,0.00,,2013-07-04 01:03:00,
2013-07-03 20:15:00,74.0,64.0,30.07,NNE,17,0.0,0.0,71,0.00,,,0.00,,2013-07-04 01:15:00,
2013-07-03 20:23:00,74.0,64.0,30.07,NNE,17,0.0,0.0,71,0.00,,,0.00,,2013-07-04 01:23:00,
2013-07-03 20:37:00,73.0,65.0,30.07,NNE,17,0.0,0.0,76,0.00,,,0.00,,2013-07-04 01:37:00,
2013-07-03 20:43:00,71.0,65.0,30.07,NNE,17,0.0,0.0,81,0.00,,,0.00,,2013-07-04 01:43:00,
2013-07-03 21:06:00,70.0,66.0,30.07,NNE,17,0.0,0.0,86,0.00,,,0.00,,2013-07-04 02:06:00,
2013-07-03 21:23:00,68.0,64.0,30.08,NNE,17,0.0,0.0,88,0.00,,,0.00,,2013-07-04 02:23:00,
2013-07-03 21:38:00,67.0,64.0,30.08,NNE,17,0.0,0.0,89,0.00,,,0.00,,2013-07-04 02:38:00,
2013-07-03 21:55:00,67.0,64.0,30.08,NNE,17,0.0,0.0,90,0.00,,,0.00,,2013-07-04 02:55:00,
2013-07-03 22:04:00,66.0,63.0,30.09,NNE,17,0.0,0.0,90,0.00,,,0.00,,2013-07-04 03:04:00,
2013-07-03 22:14:00,66.0,63.0,30.09,NNE,17,0.0,0.0,90,0.00,,,0.00,,2013-07-04 03:14:00,
2013-07-03 22:27:00,66.0,63.0,30.09,NNE,17,0.0,0.0,90,0.00,,,0.00,,2013-07-04 03:27:00,
2013-07-03 22:35:00,65.0,62.0,30.09,NNE,17,0.0,0.0,91,0.00,,,0.00,,2013-07-04 03:35:00,
2013-07-03 22:46:00,65.0,62.0,30.09,NNE,17,0.0,0.0,91,0.00,,,0.00,,2013-07-04 03:46:00,
2013-07-03 22:56:00,65.0,62.0,30.09,NNE,17,0.0,0.0,91,0.00,,,0.00,,2013-07-04 03:56:00,
2013-07-03 23:02:00,65.0,63.0,30.10,NNE,17,0.0,0.0,93,0.00,,,0.00,,2013-07-04 04:02:00,
2013-07-03 23:11:00,64.0,62.0,30.10,NNE,17,0.0,0.0,94,0.00,,,0.00,,2013-07-04 04:11:00,
2013-07-03 23:22:00,64.0,62.0,30.10,NNE,17,0.0,0.0,94,0.00,,,0.00,,2013-07-04 04:22:00,
2013-07-03 23:33:00,64.0,62.0,30.10,NNE,17,0.0,0.0,93,0.00,,,0.00,,2013-07-04 04:33:00,
2013-07-03 23:43:00,64.0,62.0,30.10,NNE,17,0.0,0.0,94,0.00,,,0.00,,2013-07-04 04:43:00,
2013-07-03 23:52:00,64.0,62.0,30.10,NNE,17,0.0,0.0,94,0.00,,,0.00,,2013-07-04 04:52:00,